This demonstration page uses our WeatherBlox Daily Observations layout. Learn more.

Left ArrowRight Arrow

Hourly Observations for August 6, 2020

Temp ( °F °C ) Dew Point ( °F °C ) Humidity (%) Winds ( mph kmh ) Pressure ( in mb ) Visibility ( mi km ) Precip ( " mm )
12:15 am 00:15 Clear 56 13.1 54 12.4 96 96 Calm 30.12 1020 10 16 0.00 0.00
12:35 am 00:35 Clear 55 12.5 54 12.1 97 97 Calm 30.12 1020 10 16 0.00 0.00
12:55 am 00:55 Clear 54 12.2 54 12 99 99 Calm 30.12 1020 10 16 0.00 0.00
1:15 am 01:15 Clear 54 12.1 53 11.9 99 99 Calm 30.12 1020 10 16 0.00 0.00
1:35 am 01:35 Clear 54 12.1 53 11.7 97 97 Calm 30.12 1020 10 16 0.00 0.00
1:55 am 01:55 Clear 54 12 53 11.7 98 98 Calm 30.12 1020 10 16 0.00 0.00
2:15 am 02:15 Clear 53 11.9 53 11.6 98 98 Calm 30.12 1020 10 16 0.00 0.00
2:35 am 02:35 Clear 53 11.5 52 11.2 98 98 Calm 30.13 1020 10 16 0.00 0.00
2:55 am 02:55 Clear 51 10.8 51 10.7 99 99 Calm 30.13 1020 10 16 0.00 0.00
3:15 am 03:15 Clear 53 11.5 52 11.2 98 98 Calm 30.13 1020 10 16 0.00 0.00
3:35 am 03:35 Clear 53 11.4 52 11.1 98 98 Calm 30.13 1020 10 16 0.00 0.00
3:55 am 03:55 Clear 52 11 52 11 100 100 Calm 30.14 1021 10 16 0.00 0.00
4:15 am 04:15 Clear 52 11 51 10.7 98 98 Calm 30.13 1020 10 16 0.00 0.00
4:35 am 04:35 Clear 52 11.1 52 11 99 99 Calm 30.14 1021 10 16 0.00 0.00
4:55 am 04:55 Clear 51 10.8 51 10.6 99 99 Calm 30.14 1021 10 16 0.00 0.00
5:15 am 05:15 Clear 51 10.6 51 10.5 99 99 Calm 30.14 1021 10 16 0.00 0.00
5:35 am 05:35 Partly Cloudy 51 10.7 51 10.6 99 99 Calm 30.14 1021 10 16 0.00 0.00
5:55 am 05:55 Mostly Cloudy 52 11 52 10.9 99 99 Calm 30.15 1021 10 16 0.00 0.00
6:15 am 06:15 Mostly Cloudy 53 11.5 52 11.2 98 98 Calm 30.15 1021 10 16 0.00 0.00
6:35 am 06:35 Cloudy 54 12 53 11.6 97 97 Calm 30.14 1021 10 16 0.00 0.00
6:55 am 06:55 Mostly Cloudy 54 12 53 11.6 97 97 Calm 30.15 1021 10 16 0.00 0.00
7:15 am 07:15 Partly Cloudy 53 11.8 53 11.5 98 98 Calm 30.15 1021 10 16 0.00 0.00
7:35 am 07:35 Mostly Cloudy 54 12 53 11.7 98 98 Calm 30.15 1021 10 16 0.00 0.00
7:55 am 07:55 Mostly Cloudy 56 13.6 55 12.5 93 93 Calm 30.15 1021 10 16 0.00 0.00
8:15 am 08:15 Cloudy 59 15.2 56 13.2 88 88 N 3 6 30.15 1021 10 16 0.00 0.00
8:35 am 08:35 Mostly Cloudy 61 16 56 13.3 84 84 Calm 30.16 1021 10 16 0.00 0.00
8:55 am 08:55 Mostly Cloudy 63 17.1 57 13.8 81 81 Calm 30.15 1021 10 16 0.00 0.00
9:15 am 09:15 Partly Cloudy 64 17.8 55 12.9 73 73 ENE 5 7 30.14 1021 10 16 0.00 0.00
9:35 am 09:35 Sunny 64 17.9 55 12.8 72 72 ENE 3 6 30.14 1021 10 16 0.00 0.00
9:55 am 09:55 Sunny 66 18.8 56 13.6 72 72 ENE 5 7 30.14 1021 10 16 0.00 0.00
10:15 am 10:15 Sunny 67 19.5 56 13.5 68 68 NE 5 7 30.14 1021 10 16 0.00 0.00
10:35 am 10:35 Sunny 68 20 57 13.9 68 68 NNE 3 6 30.13 1020 10 16 0.00 0.00
10:55 am 10:55 Sunny 69 20.5 54 12.4 60 60 NE 5 7 30.13 1020 10 16 0.00 0.00
11:15 am 11:15 Sunny 70 21 54 12.2 57 57 NE 7 11 30.13 1020 10 16 0.00 0.00
11:35 am 11:35 Sunny 70 21.2 55 12.5 58 58 NE 6 9 30.13 1020 10 16 0.00 0.00
11:55 am 11:55 Sunny 71 21.5 56 13.5 60 60 NNE 6 9 30.13 1020 10 16 0.00 0.00
12:15 pm 12:15 Partly Cloudy 71 21.7 55 12.6 56 56 NE 5 7 30.13 1020 10 16 0.00 0.00
12:35 pm 12:35 Partly Cloudy 71 21.7 55 12.6 56 56 ENE 5 7 30.13 1020 10 16 0.00 0.00
12:55 pm 12:55 Partly Cloudy 73 22.5 57 13.8 58 58 N 5 7 30.12 1020 10 16 0.00 0.00
1:15 pm 13:15 Partly Cloudy 73 22.5 56 13.6 57 57 NNE 6 9 30.12 1020 10 16 0.00 0.00
1:35 pm 13:35 Partly Cloudy 73 22.8 56 13.1 54 54 NE 6 9 30.11 1020 10 16 0.00 0.00
1:55 pm 13:55 Mostly Cloudy 72 22.2 56 13.4 58 58 NNE 7 11 30.11 1020 10 16 0.00 0.00
2:15 pm 14:15 Mostly Cloudy 73 23 57 14.1 57 57 NNE 8 13 30.11 1020 10 16 0.00 0.00
2:35 pm 14:35 Partly Cloudy 73 23 56 13.5 55 55 NNE 6 9 30.11 1020 10 16 0.00 0.00
2:55 pm 14:55 Partly Cloudy 74 23.1 55 12.8 52 52 N 7 11 30.11 1020 10 16 0.00 0.00
3:15 pm 15:15 Partly Cloudy 73 22.7 55 13 54 54 E 3 6 30.11 1020 10 16 0.00 0.00
3:35 pm 15:35 Sunny 74 23.5 55 12.9 51 51 NE 6 9 30.09 1019 10 16 0.00 0.00
3:55 pm 15:55 Sunny 74 23.4 55 12.7 51 51 ENE 5 7 30.10 1019 10 16 0.00 0.00
4:15 pm 16:15 Partly Cloudy 75 23.7 56 13.6 53 53 NNE 8 13 30.08 1019 10 16 0.00 0.00
4:35 pm 16:35 Partly Cloudy 75 23.7 58 14.4 56 56 N 8 13 30.08 1019 10 16 0.00 0.00
4:55 pm 16:55 Sunny 74 23.5 55 12.9 51 51 ENE 5 7 30.08 1019 10 16 0.00 0.00
5:15 pm 17:15 Partly Cloudy 74 23.6 56 13.3 53 53 ENE 6 9 30.08 1019 10 16 0.00 0.00
5:35 pm 17:35 Sunny 74 23.5 55 12.8 51 51 NNE 8 13 30.07 1018 10 16 0.00 0.00
5:55 pm 17:55 Partly Cloudy 74 23.5 56 13.6 54 54 NE 8 13 30.08 1019 10 16 0.00 0.00
6:15 pm 18:15 Partly Cloudy 72 22.3 55 12.7 55 55 NNE 5 7 30.08 1019 10 16 0.00 0.00
6:35 pm 18:35 Sunny 74 23.2 55 12.9 52 52 N 6 9 30.08 1018 10 16 0.00 0.00
6:55 pm 18:55 Sunny 73 22.9 56 13.3 55 55 NNE 5 7 30.08 1019 10 16 0.00 0.00
7:15 pm 19:15 Sunny 73 22.6 56 13.2 55 55 NNE 5 7 30.08 1019 10 16 0.00 0.00
7:35 pm 19:35 Sunny 72 22 57 14.1 61 61 NNE 5 7 30.08 1019 10 16 0.00 0.00
7:55 pm 19:55 Sunny 70 21.1 59 15.1 69 69 NE 3 6 30.08 1019 10 16 0.00 0.00
8:15 pm 20:15 Sunny 68 20 60 15.7 76 76 NE 3 6 30.09 1019 10 16 0.00 0.00
8:35 pm 20:35 Sunny 66 18.9 60 15.6 81 81 NE 3 6 30.09 1019 10 16 0.00 0.00
8:55 pm 20:55 Clear 63 17.4 60 15.4 88 88 Calm 30.10 1019 10 16 0.00 0.00
9:15 pm 21:15 Clear 62 16.7 59 14.8 89 89 NNW 3 6 30.10 1019 10 16 0.00 0.00
9:35 pm 21:35 Clear 61 16.1 58 14.4 90 90 Calm 30.10 1019 10 16 0.00 0.00
9:55 pm 21:55 Clear 63 17 57 14.1 83 83 Calm 30.11 1020 10 16 0.00 0.00
10:15 pm 22:15 Clear 59 15.1 57 13.9 93 93 Calm 30.11 1020 10 16 0.00 0.00
10:35 pm 22:35 Clear 60 15.4 57 14 91 91 Calm 30.12 1020 10 16 0.00 0.00
10:55 pm 22:55 Clear 59 14.8 57 13.9 94 94 Calm 30.12 1020 10 16 0.00 0.00
11:15 pm 23:15 Clear 57 13.7 56 13.2 97 97 Calm 30.13 1020 10 16 0.00 0.00
11:35 pm 23:35 Clear 58 14.2 56 13.5 96 96 Calm 30.13 1020 10 16 0.00 0.00
11:55 pm 23:55 Clear 57 13.9 56 13.2 96 96 N 3 6 30.13 1020 10 16 0.00 0.00

Powered by AerisWeather